GW3385 Weather Reports


Display with metric or nautical units.
time (UTC)temp
F
wind
direction
speed
MPH
gust
MPH
rain 1hr
in
rain 24hr
in
rain mn
in
humidity
%
barometer
mb
20260906132557 63 348 2.0 8.0 0.10 0.15 0.15 84 1013.1
20260906132058 64 292 2.0 8.0 0.11 0.14 0.14 84 1013.4
20260906131603 64 0 2.0 8.0 0.13 0.14 0.14 84 1013.0
20260906131056 65 0 2.0 7.0 0.13 0.13 0.13 83 1012.9
20260906130556 66 298 1.0 5.0 0.12 0.12 0.12 83 1012.8
20260906130114 67 19 2.0 5.0 0.12 0.12 0.12 82 1012.3
20260906125556 67 0 2.0 5.0 0.10 0.10 0.10 81 1012.7
20260906125058 68 15 1.0 8.0 0.09 0.09 0.09 79 1013.4
20260906124557 69 273 1.0 8.0 0.09 0.09 0.09 78 1013.4
20260906124056 69 273 3.0 8.0 0.08 0.08 0.08 75 1013.6
20260906123555 70 184 2.0 5.0 0.07 0.07 0.07 72 1013.3
20260906123058 71 175 2.0 5.0 0.05 0.05 0.05 67 1012.7
20260906122555 71 0 0.0 3.0 0.05 0.05 0.05 64 1012.1
20260906122056 72 0 0.0 5.0 0.03 0.03 0.03 63 1012.0
20260906121618 73 152 1.0 5.0 0.01 0.01 0.01 60 1011.9
20260906121057 73 0 3.0 5.0 0.00 0.00 0.00 55 1011.8
20260906120552 72 166 0.0 2.0 0.00 0.00 0.00 55 1011.6
20260906120104 72 0 0.0 0.0 0.00 0.00 0.00 56 1011.3
20260906115555 72 0 0.0 0.0 0.00 0.00 0.00 57 1011.1
20260906115055 72 0 0.0 0.0 0.00 0.00 0.00 56 1011.1
20260906114627 72 0 0.0 0.0 0.00 0.00 0.00 55 1011.1
20260906114055 72 0 0.0 1.0 0.00 0.00 0.00 55 1011.1
20260906113551 72 0 0.0 1.0 0.00 0.00 0.00 56 1011.3
20260906113114 72 0 0.0 1.0 0.00 0.00 0.00 56 1011.2
20260906112555 72 0 0.0 3.0 0.00 0.00 0.00 56 1011.2
20260906112055 72 0 0.0 3.0 0.00 0.00 0.00 55 1011.2
20260906111603 72 352 0.0 2.0 0.00 0.00 0.00 56 1011.2
20260906111055 73 0 0.0 1.0 0.00 0.00 0.00 56 1011.2
20260906110555 73 0 0.0 1.0 0.00 0.00 0.00 55 1011.2
20260906110100 73 0 0.0 0.0 0.00 0.00 0.00 54 1011.3
20260906105556 73 0 0.0 0.0 0.00 0.00 0.00 55 1011.3
20260906105057 73 0 0.0 0.0 0.00 0.00 0.00 54 1011.2
20260906104605 73 0 0.0 0.0 0.00 0.00 0.00 55 1011.2
20260906104056 73 0 0.0 0.0 0.00 0.00 0.00 54 1011.1
20260906103555 73 0 0.0 0.0 0.00 0.00 0.00 54 1011.2
20260906103114 73 0 0.0 1.0 0.00 0.00 0.00 53 1011.2
20260906102557 73 0 0.0 2.0 0.00 0.00 0.00 53 1011.1
20260906102059 73 0 0.0 2.0 0.00 0.00 0.00 53 1011.2
20260906101605 73 0 0.0 1.0 0.00 0.00 0.00 54 1011.2
20260906101055 73 0 0.0 0.0 0.00 0.00 0.00 53 1011.2
20260906100555 73 0 0.0 0.0 0.00 0.00 0.00 53 1011.1
20260906100101 73 0 0.0 0.0 0.00 0.00 0.00 53 1011.2
20260906095556 73 0 0.0 0.0 0.00 0.00 0.00 54 1011.2
20260906095056 73 0 0.0 0.0 0.00 0.00 0.00 53 1011.3
20260906094557 73 0 0.0 0.0 0.00 0.00 0.00 51 1011.3
20260906094055 73 0 0.0 1.0 0.00 0.00 0.00 50 1011.2
20260906093556 73 0 0.0 1.0 0.00 0.00 0.00 51 1011.3
20260906093056 73 0 0.0 2.0 0.00 0.00 0.00 50 1011.2
20260906092555 73 0 0.0 2.0 0.00 0.00 0.00 50 1011.2
20260906092056 73 352 0.0 2.0 0.00 0.00 0.00 49 1011.2
20260906091614 73 0 0.0 3.0 0.00 0.00 0.00 50 1011.2
20260906091055 73 0 0.0 3.0 0.00 0.00 0.00 50 1011.2
20260906090558 73 345 0.0 3.0 0.00 0.00 0.00 50 1011.2
20260906090111 73 360 0.0 3.0 0.00 0.00 0.00 50 1011.3
20260906085554 73 0 1.0 3.0 0.00 0.00 0.00 50 1011.2
20260906085056 73 0 1.0 3.0 0.00 0.00 0.00 50 1011.3
20260906084558 73 0 1.0 5.0 0.00 0.00 0.00 51 1011.4
20260906084055 73 0 1.0 5.0 0.00 0.00 0.00 52 1011.4
20260906083556 72 350 3.0 5.0 0.00 0.00 0.00 52 1011.3
20260906083103 72 348 1.0 4.0 0.00 0.00 0.00 52 1011.4
20260906082555 72 323 1.0 4.0 0.00 0.00 0.00 52 1011.5
20260906082055 72 0 0.0 4.0 0.00 0.00 0.00 52 1011.6
20260906081559 72 360 1.0 4.0 0.00 0.00 0.00 52 1011.6
20260906081056 72 0 0.0 2.0 0.00 0.00 0.00 54 1011.6
20260906080555 72 0 0.0 2.0 0.00 0.00 0.00 54 1011.6
20260906080111 72 0 0.0 2.0 0.00 0.00 0.00 54 1011.6
20260906075555 72 0 0.0 2.0 0.00 0.00 0.00 54 1011.6
20260906075055 72 0 0.0 2.0 0.00 0.00 0.00 55 1011.6
20260906074559 72 0 0.0 2.0 0.00 0.00 0.00 55 1011.6
20260906074054 72 338 0.0 2.0 0.00 0.00 0.00 55 1011.6
20260906073556 72 0 0.0 2.0 0.00 0.00 0.00 55 1011.7
20260906073103 72 352 0.0 2.0 0.00 0.00 0.00 54 1011.6
20260906072556 72 0 0.0 2.0 0.00 0.00 0.00 54 1011.6
20260906072056 71 0 0.0 2.0 0.00 0.00 0.00 54 1011.6
20260906071613 71 0 0.0 2.0 0.00 0.00 0.00 54 1011.6
20260906071055 71 0 0.0 3.0 0.00 0.00 0.00 55 1011.5
20260906070554 71 352 1.0 3.0 0.00 0.00 0.00 55 1011.5
20260906070106 71 352 0.0 3.0 0.00 0.00 0.00 55 1011.5
20260906065557 71 345 1.0 4.0 0.00 0.00 0.00 55 1011.5
20260906065055 71 0 1.0 4.0 0.00 0.00 0.00 55 1011.6
20260906064602 71 342 2.0 4.0 0.00 0.00 0.00 55 1011.4
20260906064057 71 338 0.0 2.0 0.00 0.00 0.00 54 1011.6
20260906063555 71 0 0.0 1.0 0.00 0.00 0.00 54 1011.6
20260906063057 71 0 0.0 1.0 0.00 0.00 0.00 54 1011.6
20260906062559 71 0 0.0 1.0 0.00 0.00 0.00 53 1011.7
20260906062055 71 0 0.0 2.0 0.00 0.00 0.00 52 1011.7
20260906061606 71 0 0.0 2.0 0.00 0.00 0.00 52 1011.8
20260906061055 71 338 0.0 2.0 0.00 0.00 0.00 53 1011.8
20260906060555 71 0 0.0 0.0 0.00 0.00 0.00 52 1011.8
20260906060155 71 0 0.0 0.0 0.00 0.00 0.00 52 1011.8
20260906055555 71 0 0.0 0.0 0.00 0.00 0.00 49 1011.8
20260906055056 71 0 0.0 0.0 0.00 0.00 0.00 49 1011.8
20260906054609 71 0 0.0 1.0 0.00 0.00 0.00 50 1011.8
20260906054056 72 0 0.0 1.0 0.00 0.00 0.00 51 1011.9
20260906053555 72 0 0.0 1.0 0.00 0.00 0.00 51 1011.8
20260906053055 72 0 0.0 1.0 0.00 0.00 0.00 50 1011.9
20260906052556 72 0 0.0 1.0 0.00 0.00 0.00 49 1011.9
20260906052057 72 0 0.0 1.0 0.00 0.00 0.00 49 1012.0
20260906051605 72 0 0.0 1.0 0.00 0.00 0.00 50 1012.0
20260906051055 72 0 0.0 1.0 0.00 0.00 0.00 50 1012.0
20260906050556 72 0 0.0 1.0 0.00 0.00 0.00 49 1012.0
20260906050114 72 0 0.0 3.0 0.00 0.00 0.00 49 1012.0
20260906045555 72 0 0.0 3.0 0.00 0.00 0.00 49 1011.9
20260906045055 72 0 1.0 3.0 0.00 0.00 0.00 49 1011.9
20260906044558 72 340 1.0 3.0 0.00 0.00 0.00 49 1011.9
20260906044057 73 323 0.0 3.0 0.00 0.00 0.00 49 1011.9
20260906043555 73 0 0.0 3.0 0.00 0.00 0.00 48 1012.0
20260906043110 73 0 1.0 3.0 0.00 0.00 0.00 47 1012.0
20260906042556 73 0 0.0 1.0 0.00 0.00 0.00 48 1011.9
20260906042055 73 0 0.0 1.0 0.00 0.00 0.00 47 1012.0
20260906041605 74 26 0.0 1.0 0.00 0.00 0.00 46 1012.0
20260906041054 74 0 0.0 2.0 0.00 0.00 0.00 47 1012.0
20260906040555 74 0 0.0 2.0 0.00 0.00 0.00 48 1011.9
20260906035555 75 0 0.0 2.0 0.00 0.00 0.00 48 1011.8
20260906035056 75 0 0.0 2.0 0.00 0.00 0.00 45 1011.8
20260906034601 75 55 0.0 2.0 0.00 0.00 0.00 45 1011.8
20260906034055 75 0 0.0 0.0 0.00 0.00 0.00 45 1011.8
20260906033555 76 0 0.0 0.0 0.00 0.00 0.00 46 1011.8
20260906033057 76 0 0.0 0.0 0.00 0.00 0.00 45 1011.6
20260906032555 76 0 0.0 0.0 0.00 0.00 0.00 45 1011.6
20260906032056 76 0 0.0 0.0 0.00 0.00 0.00 44 1011.4
20260906031630 76 0 0.0 0.0 0.00 0.00 0.00 42 1011.4
20260906031056 76 0 0.0 2.0 0.00 0.00 0.00 42 1011.4
20260906030556 76 0 0.0 2.0 0.00 0.00 0.00 42 1011.3
20260906030059 76 0 0.0 2.0 0.00 0.00 0.00 41 1011.4
20260906025555 76 0 0.0 5.0 0.00 0.00 0.00 41 1011.4
20260906025056 76 180 1.0 5.0 0.00 0.00 0.00 40 1011.4
20260906024607 76 192 2.0 5.0 0.00 0.00 0.00 41 1011.4
20260906024055 76 186 1.0 6.0 0.00 0.00 0.00 42 1011.5
20260906023556 76 220 1.0 6.0 0.00 0.00 0.00 41 1011.5
20260906023113 77 196 1.0 6.0 0.00 0.00 0.00 42 1011.5
20260906022557 77 190 2.0 6.0 0.00 0.00 0.00 41 1011.4
20260906022056 77 182 2.0 6.0 0.00 0.00 0.00 40 1011.5
20260906021557 77 182 1.0 8.0 0.00 0.00 0.00 39 1011.5
20260906021055 77 302 4.0 9.0 0.00 0.00 0.00 39 1011.5
20260906020555 77 300 5.0 9.0 0.00 0.00 0.00 39 1011.4
20260906020106 77 276 5.0 8.0 0.00 0.00 0.00 41 1011.4
20260906015555 78 267 4.0 8.0 0.00 0.00 0.00 42 1011.4
20260906015055 78 311 2.0 8.0 0.00 0.00 0.00 45 1011.3
20260906014607 78 176 4.0 10.0 0.00 0.00 0.00 44 1011.3
20260906014054 78 247 2.0 10.0 0.00 0.00 0.00 49 1011.3
20260906013555 78 258 3.0 9.0 0.00 0.00 0.00 46 1011.4
20260906013100 78 307 4.0 9.0 0.00 0.00 0.00 49 1011.3
20260906012555 78 271 4.0 9.0 0.00 0.00 0.00 50 1011.4
20260906012056 78 261 3.0 9.0 0.00 0.00 0.00 50 1011.5
20260906011605 78 194 2.0 7.0 0.00 0.00 0.00 51 1011.3
20260906011055 78 254 2.0 11.0 0.00 0.00 0.00 51 1011.3
20260906010555 79 231 4.0 11.0 0.00 0.00 0.00 52 1011.2
20260906005556 80 232 4.0 8.0 0.00 0.00 0.00 48 1011.3
20260906005056 80 167 3.0 8.0 0.00 0.00 0.00 47 1011.2
20260906004608 80 248 2.0 8.0 0.00 0.00 0.00 46 1011.2
20260906004055 80 250 4.0 9.0 0.00 0.00 0.00 48 1011.1
20260906003556 80 189 4.0 10.0 0.00 0.00 0.00 49 1011.2
20260906003101 80 202 3.0 12.0 0.00 0.00 0.00 50 1011.0
20260906002559 80 181 7.0 12.0 0.00 0.00 0.00 49 1011.0
20260906002056 80 199 4.0 10.0 0.00 0.00 0.00 50 1011.0
20260906001559 80 244 5.0 11.0 0.00 0.00 0.00 49 1011.0
20260906001056 81 189 6.0 11.0 0.00 0.00 0.00 47 1011.1
20260906000555 81 223 6.0 11.0 0.00 0.00 0.00 47 1011.1
20260906000110 82 151 4.0 11.0 0.00 0.00 0.00 49 1011.1
20260905235555 82 223 3.0 9.0 0.00 0.00 0.00 49 1011.1
20260905235055 82 183 4.0 9.0 0.00 0.00 0.00 47 1011.2
20260905234602 82 162 3.0 10.0 0.00 0.00 0.00 51 1011.0
20260905234059 82 176 4.0 11.0 0.00 0.00 0.00 48 1011.1
20260905233555 82 270 6.0 11.0 0.00 0.00 0.00 46 1010.9
20260905233105 82 300 6.0 11.0 0.00 0.00 0.00 48 1010.9
20260905232556 82 173 3.0 9.0 0.00 0.00 0.00 46 1011.2
20260905232056 82 279 3.0 10.0 0.00 0.00 0.00 50 1011.1
20260905231619 82 263 5.0 10.0 0.00 0.00 0.00 48 1011.2
20260905231055 82 247 5.0 11.0 0.00 0.00 0.00 48 1011.2
20260905230556 82 217 5.0 11.0 0.00 0.00 0.00 48 1011.2
20260905230112 82 271 7.0 11.0 0.00 0.00 0.00 48 1011.2
20260905225555 83 302 5.0 11.0 0.00 0.00 0.00 50 1011.3
20260905225055 83 130 5.0 12.0 0.00 0.00 0.00 48 1011.2
20260905224559 83 168 4.0 12.0 0.00 0.00 0.00 47 1011.3
20260905224055 83 250 4.0 11.0 0.00 0.00 0.00 47 1011.3
20260905223555 83 199 5.0 11.0 0.00 0.00 0.00 48 1011.5
20260905223106 83 148 3.0 8.0 0.00 0.00 0.00 48 1011.5
20260905222557 83 153 4.0 9.0 0.00 0.00 0.00 48 1011.5
20260905222055 83 0 4.0 12.0 0.00 0.00 0.00 46 1011.6
20260905221628 84 169 4.0 12.0 0.00 0.00 0.00 45 1011.6
20260905221055 84 191 5.0 10.0 0.00 0.00 0.00 43 1011.8
20260905220555 84 216 5.0 10.0 0.00 0.00 0.00 41 1011.7
20260905220103 84 201 5.0 10.0 0.00 0.00 0.00 42 1011.9
20260905215556 84 235 4.0 10.0 0.00 0.00 0.00 42 1011.8
20260905215056 84 262 4.0 11.0 0.00 0.00 0.00 41 1011.8
20260905214603 84 181 4.0 11.0 0.00 0.00 0.00 41 1011.8
20260905214057 84 184 3.0 9.0 0.00 0.00 0.00 42 1012.0
20260905213556 83 185 4.0 11.0 0.00 0.00 0.00 43 1012.0
20260905213130 83 160 5.0 11.0 0.00 0.00 0.00 43 1012.0
20260905212557 83 153 2.0 9.0 0.00 0.00 0.00 45 1012.1
20260905212056 83 234 5.0 9.0 0.00 0.00 0.00 48 1012.1
20260905211605 83 186 5.0 9.0 0.00 0.00 0.00 46 1012.2
20260905211055 83 314 2.0 9.0 0.00 0.00 0.00 49 1012.3
20260905210555 82 288 5.0 9.0 0.00 0.00 0.00 49 1012.3
20260905210111 82 286 3.0 9.0 0.00 0.00 0.00 51 1012.4
20260905205556 82 192 4.0 8.0 0.00 0.00 0.00 52 1012.3
20260905205056 82 163 4.0 12.0 0.00 0.00 0.00 53 1012.4
20260905204612 81 160 2.0 12.0 0.00 0.00 0.00 56 1012.5
20260905204055 81 115 5.0 12.0 0.00 0.00 0.00 56 1012.7
20260905203556 81 214 6.0 10.0 0.00 0.00 0.00 55 1012.7
20260905203104 81 159 5.0 9.0 0.00 0.00 0.00 56 1012.7
20260905202556 81 157 4.0 10.0 0.00 0.00 0.00 55 1012.7
20260905202055 81 196 5.0 10.0 0.00 0.00 0.00 55 1012.7
20260905201607 82 245 4.0 9.0 0.00 0.00 0.00 57 1012.7
20260905201059 81 153 4.0 9.0 0.00 0.00 0.00 56 1012.8
20260905200552 81 223 3.0 8.0 0.00 0.00 0.00 58 1012.8
20260905200127 81 232 4.0 10.0 0.00 0.00 0.00 56 1012.9
20260905195559 81 214 6.0 10.0 0.00 0.00 0.00 57 1013.0
20260905195056 82 208 4.0 11.0 0.00 0.00 0.00 57 1013.1
20260905194607 82 184 3.0 11.0 0.00 0.00 0.00 55 1013.1
20260905194059 81 139 3.0 7.0 0.00 0.00 0.00 57 1013.0
20260905193555 81 266 2.0 9.0 0.00 0.00 0.00 55 1013.1
20260905193104 81 291 3.0 9.0 0.00 0.00 0.00 56 1013.1
20260905192557 81 218 3.0 7.0 0.00 0.00 0.00 57 1013.1
20260905192055 81 202 2.0 7.0 0.00 0.00 0.00 56 1013.2
20260905191602 80 163 2.0 9.0 0.00 0.00 0.00 57 1013.2
20260905191055 80 238 3.0 9.0 0.00 0.00 0.00 56 1013.3
20260905190556 80 150 4.0 10.0 0.00 0.00 0.00 55 1013.4
20260905185555 80 205 2.0 6.0 0.00 0.00 0.00 53 1013.5
20260905185059 80 243 3.0 7.0 0.00 0.00 0.00 55 1013.6
20260905184602 80 202 3.0 7.0 0.00 0.00 0.00 57 1013.5
20260905184059 80 248 3.0 6.0 0.00 0.00 0.00 56 1013.5
20260905183556 81 247 2.0 6.0 0.00 0.00 0.00 55 1013.6
20260905183107 81 275 1.0 4.0 0.00 0.00 0.00 50 1013.6
20260905182631 80 0 1.0 4.0 0.00 0.00 0.00 51 1013.7
20260905182055 80 99 0.0 7.0 0.00 0.00 0.00 52 1013.7
20260905181603 80 55 2.0 7.0 0.00 0.00 0.00 51 1013.8
20260905181053 79 115 1.0 7.0 0.00 0.00 0.00 51 1013.8
20260905180555 79 219 2.0 7.0 0.00 0.00 0.00 51 1013.8
20260905180114 79 78 3.0 6.0 0.00 0.00 0.00 52 1013.8
20260905175556 79 315 0.0 3.0 0.00 0.00 0.00 55 1013.8
20260905175059 78 71 0.0 5.0 0.00 0.00 0.00 53 1013.7
20260905174605 77 0 0.0 5.0 0.00 0.00 0.00 57 1013.7
20260905174055 77 194 2.0 7.0 0.00 0.00 0.00 58 1013.7
20260905173556 77 0 3.0 7.0 0.00 0.00 0.00 58 1013.6
20260905173126 78 229 2.0 4.0 0.00 0.00 0.00 59 1013.7
20260905172555 78 179 0.0 6.0 0.00 0.00 0.00 61 1013.6
20260905172055 77 0 1.0 6.0 0.00 0.00 0.00 61 1013.7
20260905171603 77 0 2.0 6.0 0.00 0.00 0.00 61 1013.7
20260905171056 76 119 2.0 6.0 0.00 0.00 0.00 61 1013.7
20260905170556 76 0 1.0 7.0 0.00 0.00 0.00 64 1013.6
20260905170105 76 200 2.0 7.0 0.00 0.00 0.00 63 1013.7
20260905165555 76 0 1.0 5.0 0.00 0.00 0.00 64 1013.6
20260905165059 76 0 2.0 6.0 0.00 0.00 0.00 63 1013.5
20260905164615 76 71 2.0 6.0 0.00 0.00 0.00 61 1013.5
20260905164057 76 71 0.0 4.0 0.00 0.00 0.00 65 1013.4
20260905163556 76 120 1.0 4.0 0.00 0.00 0.00 65 1013.4
20260905163101 76 0 1.0 4.0 0.00 0.00 0.00 65 1013.3
20260905162556 76 0 0.0 3.0 0.00 0.00 0.00 68 1013.3
20260905162056 75 0 0.0 3.0 0.00 0.00 0.00 68 1013.2
20260905161603 75 0 0.0 3.0 0.00 0.00 0.00 70 1013.2
20260905161055 74 71 0.0 3.0 0.00 0.00 0.00 71 1013.1
20260905160555 74 0 0.0 3.0 0.00 0.00 0.00 71 1013.1
20260905160101 74 99 0.0 3.0 0.00 0.00 0.00 72 1013.1
20260905155555 74 85 0.0 2.0 0.00 0.00 0.00 74 1013.1
20260905155057 73 0 0.0 2.0 0.00 0.00 0.00 74 1013.1
20260905154603 73 0 0.0 2.0 0.00 0.00 0.00 75 1013.2
20260905154056 72 0 0.0 1.0 0.00 0.00 0.00 76 1013.1
20260905153559 72 49 0.0 2.0 0.00 0.00 0.00 76 1013.0
20260905153102 71 0 0.0 2.0 0.00 0.00 0.00 80 1013.0
20260905152555 70 0 0.0 1.0 0.00 0.00 0.00 82 1012.9
20260905152055 69 0 0.0 1.0 0.00 0.00 0.00 84 1012.9
20260905151601 69 0 0.0 2.0 0.00 0.00 0.00 85 1013.0
20260905151055 68 0 0.0 2.0 0.00 0.00 0.00 86 1012.9
20260905150559 68 49 0.0 2.0 0.00 0.00 0.00 87 1013.0
20260905150109 67 0 0.0 2.0 0.00 0.00 0.00 89 1012.9
20260905145555 66 0 0.0 2.0 0.00 0.00 0.00 90 1012.9
20260905145055 66 29 0.0 0.0 0.00 0.00 0.00 90 1012.9
20260905144602 65 0 0.0 0.0 0.00 0.00 0.00 91 1012.9
20260905144055 65 0 0.0 3.0 0.00 0.00 0.00 92 1012.9
20260905143555 64 0 1.0 3.0 0.00 0.00 0.00 92 1012.8
20260905143105 64 350 0.0 0.0 0.00 0.00 0.00 92 1012.7
20260905142555 64 0 0.0 0.0 0.00 0.00 0.00 92 1012.6
20260905142056 64 0 0.0 0.0 0.00 0.00 0.00 93 1012.7
20260905141600 64 0 0.0 0.0 0.00 0.00 0.00 93 1012.8
20260905141055 63 0 0.0 1.0 0.00 0.00 0.00 93 1012.7
20260905140556 63 0 0.0 3.0 0.00 0.00 0.00 93 1012.6
20260905140108 63 341 1.0 3.0 0.00 0.00 0.00 92 1012.6
20260905135556 63 0 0.0 3.0 0.00 0.00 0.00 92 1012.5
20260905135056 63 0 0.0 1.0 0.00 0.00 0.00 92 1012.6
20260905134606 63 352 0.0 1.0 0.00 0.00 0.00 92 1012.4
20260905134055 63 0 0.0 2.0 0.00 0.00 0.00 92 1012.4
20260905133556 63 0 0.0 2.0 0.00 0.00 0.00 92 1012.3
20260905133102 63 0 0.0 0.0 0.00 0.00 0.00 92 1012.2